2023/09/13 00:00:00, 1.7,20.2
2023/09/13 00:10:00, 1.3,20.2
2023/09/13 00:20:00, 1.3,20.1
2023/09/13 00:30:00, 1.3,20.1
2023/09/13 00:40:00, 1.3,20.0
2023/09/13 00:50:00, 2.9,20.2
2023/09/13 01:00:00, 7.0,20.1
2023/09/13 01:10:00, 7.9,19.8
2023/09/13 01:20:00, 8.1,19.7
2023/09/13 01:30:00, 8.8,19.8
2023/09/13 01:40:00, 9.5,19.8
2023/09/13 01:50:00,10.0,19.8
2023/09/13 02:00:00,10.4,19.7
2023/09/13 02:10:00,10.5,19.8
2023/09/13 02:20:00,10.4,19.8
2023/09/13 02:30:00,10.1,19.6
2023/09/13 02:40:00, 9.6,19.7
2023/09/13 02:50:00,---,19.5
2023/09/13 03:00:00, 8.9,19.0
2023/09/13 03:10:00, 8.7,19.3
2023/09/13 03:20:00, 8.6,19.3
2023/09/13 03:30:00, 8.5,19.4
2023/09/13 03:40:00, 8.5,19.3
2023/09/13 03:50:00, 8.6,19.3
2023/09/13 04:00:00, 8.6,19.2
2023/09/13 04:10:00, 8.7,19.3
2023/09/13 04:20:00, 8.6,19.0
2023/09/13 04:30:00, 8.6,19.2
2023/09/13 04:40:00, 8.5,19.1
2023/09/13 04:50:00, 8.6,19.1
2023/09/13 05:00:00, 8.5,19.1
2023/09/13 05:10:00, 8.4,19.1
2023/09/13 05:20:00, 8.3,19.4
2023/09/13 05:30:00, 8.0,19.1
2023/09/13 05:40:00, 2.1,18.9
2023/09/13 05:50:00, 1.5,19.1
2023/09/13 06:00:00, 1.4,19.0
2023/09/13 06:10:00, 1.4,19.0
2023/09/13 06:20:00, 1.4,19.0
2023/09/13 06:30:00, 1.6,19.1
2023/09/13 06:40:00, 2.3,19.1
2023/09/13 06:50:00, 6.6,19.3
2023/09/13 07:00:00, 5.1,19.5
2023/09/13 07:10:00, 1.7,19.7
2023/09/13 07:20:00, 1.7,20.0
2023/09/13 07:30:00, 1.5,20.3
2023/09/13 07:40:00, 1.4,20.6
2023/09/13 07:50:00, 1.4,21.0
2023/09/13 08:00:00, 1.4,21.5
2023/09/13 08:10:00, 1.6,21.5
2023/09/13 08:20:00, 1.5,22.5
2023/09/13 08:30:00, 1.4,23.6
2023/09/13 08:40:00, 1.4,23.9
2023/09/13 08:50:00, 1.4,24.5
2023/09/13 09:00:00, 1.1,25.0
2023/09/13 09:10:00, 0.0,25.5
2023/09/13 09:20:00,---,26.0
2023/09/13 09:30:00,---,26.0
2023/09/13 09:40:00, 0.0,27.0
2023/09/13 09:50:00, 0.0,28.5
2023/09/13 10:00:00, 1.1,29.9
2023/09/13 10:10:00,---,30.6
2023/09/13 10:20:00, 0.0,30.6
2023/09/13 10:30:00, 0.0,30.1
2023/09/13 10:40:00, 0.0,29.4
2023/09/13 10:50:00, 1.9,29.3
2023/09/13 11:00:00, 0.0,30.5
2023/09/13 11:10:00, 0.0,31.7
2023/09/13 11:20:00, 0.0,32.4
2023/09/13 11:30:00, 0.0,32.4
2023/09/13 11:40:00,---,32.1
2023/09/13 11:50:00, 0.0,32.6
2023/09/13 12:00:00,---,31.3
2023/09/13 12:10:00, 1.5,30.8
2023/09/13 12:20:00, 1.4,31.5
2023/09/13 12:30:00, 1.2,32.5
2023/09/13 12:40:00, 1.2,31.5
2023/09/13 12:50:00, 1.3,30.4
2023/09/13 13:00:00, 1.3,31.3
2023/09/13 13:10:00, 1.2,32.4
2023/09/13 13:20:00, 1.2,31.4
2023/09/13 13:30:00, 1.3,32.4
2023/09/13 13:40:00, 1.4,32.6
2023/09/13 13:50:00, 1.5,32.6
2023/09/13 14:00:00, 1.5,31.6
2023/09/13 14:10:00, 1.3,31.8
2023/09/13 14:20:00, 1.2,32.0
2023/09/13 14:30:00, 1.5,31.1
2023/09/13 14:40:00, 1.5,30.3
2023/09/13 14:50:00, 1.5,30.1
2023/09/13 15:00:00, 1.5,29.9
2023/09/13 15:10:00, 1.4,29.5
2023/09/13 15:20:00, 1.2,29.3
2023/09/13 15:30:00, 1.2,29.8
2023/09/13 15:40:00, 1.1,29.8
2023/09/13 15:50:00, 1.2,29.5
2023/09/13 16:00:00, 1.3,29.0
2023/09/13 16:10:00, 1.3,28.9
2023/09/13 16:20:00, 1.3,28.9
2023/09/13 16:30:00, 1.2,29.7
2023/09/13 16:40:00, 1.2,28.7
2023/09/13 16:50:00, 1.3,28.2
2023/09/13 17:00:00, 1.3,27.3
2023/09/13 17:10:00, 1.3,27.2
2023/09/13 17:20:00, 1.3,26.5
2023/09/13 17:30:00, 1.3,26.5
2023/09/13 17:40:00, 1.4,25.9
2023/09/13 17:50:00, 1.4,25.8
2023/09/13 18:00:00, 1.4,25.2
2023/09/13 18:10:00, 1.4,25.3
2023/09/13 18:20:00, 1.4,24.9
2023/09/13 18:30:00, 1.3,24.8
2023/09/13 18:40:00, 9.0,24.5
2023/09/13 18:50:00, 1.5,24.7
2023/09/13 19:00:00, 1.4,24.3
2023/09/13 19:10:00, 1.4,24.3
2023/09/13 19:20:00, 1.4,24.0
2023/09/13 19:30:00, 1.4,24.1
2023/09/13 19:40:00, 1.4,23.9
2023/09/13 19:50:00, 1.4,23.8
2023/09/13 20:00:00, 1.4,24.7
2023/09/13 20:10:00, 2.5,25.0
2023/09/13 20:20:00, 3.0,25.2
2023/09/13 20:30:00, 1.5,25.1
2023/09/13 20:40:00, 1.4,25.1
2023/09/13 20:50:00, 1.5,24.9
2023/09/13 21:00:00, 1.5,25.2
2023/09/13 21:10:00,---,25.1
2023/09/13 21:20:00, 3.7,24.8
2023/09/13 21:30:00, 1.4,25.0
2023/09/13 21:40:00, 1.4,25.0
2023/09/13 21:50:00, 1.5,24.8
2023/09/13 22:00:00, 1.4,25.0
2023/09/13 22:10:00, 1.5,24.7
2023/09/13 22:20:00, 1.5,24.8
2023/09/13 22:30:00, 2.6,24.6
2023/09/13 22:40:00, 5.8,24.8
2023/09/13 22:50:00, 4.8,24.8
2023/09/13 23:00:00, 1.6,24.7
2023/09/13 23:10:00, 1.5,24.6
2023/09/13 23:20:00, 1.4,24.4
2023/09/13 23:30:00, 1.4,24.5
2023/09/13 23:40:00, 1.3,24.4
2023/09/13 23:50:00, 1.5,24.0
